Regional Weather Roundup
Issued by NWS Kansas City/Pleasant Hill, MO

Home | Current Version | Previous Version | Text Only | Print | Product List | Glossary Off
Versions: 1 2 3 4 5 6 7 8 9 10 11 12 13 14 15 16 17 18 19 20 21 22 23 24 25 26 27 28 29 30 31 32 33 34 35 36 37 38 39 40 41 42 43 44 45 46 47 48 49 50

000
ASUS43 KEAX 232304
RWREAX

WEATHER ROUNDUP FOR EASTERN KANSAS AND NORTHWEST MISSOURI
NATIONAL WEATHER SERVICE KANSAS CITY/PLEASANT HILL MO
600 PM CDT TUE SEP 23 2014

KSZ040-057-103>105-MOZ028-029-037-043-240000-
...KANSAS CITY METROPOLITAN AREA...

CITY           SKY/WX    TMP DP  RH WIND       PRES   REMARKS
K.C. INTL      CLOUDY    71  53  52 SE14      30.14F
K.C. DOWNTOWN  PTSUNNY   74  51  44 SE9G17    30.14S
LEES SUMMIT    MOSUNNY   72  49  44 SE9       30.16S
OLATHE - IXD   MOSUNNY   72  54  53 SE12      30.15S
OLATHE - OJC   MOSUNNY   71  52  50 SE8       30.14F
LAWRENCE       PTSUNNY   72  52  49 SE10      30.13S

$$

MOZ001>008-011>017-020>025-030>033-038>040-044>046-053-054-240000-
...NORTHERN AND CENTRAL MISSOURI...

CITY           SKY/WX    TMP DP  RH WIND       PRES   REMARKS
ST. JOSEPH     CLOUDY    70  55  59 SE7       30.14F
MOSBY          MOCLDY    70  50  49 SE5       30.16R
WHITEMAN AFB   PTSUNNY   71  50  48 SE8       30.18S
CLINTON        PTSUNNY   73  52  46 SE8       30.18F
SEDALIA        PTSUNNY   72  48  42 SE7       30.20R
WARSAW         NOT AVBL
CHILLICOTHE      N/A     71  51  49 SE3       30.19S
MOBERLY        MOSUNNY   70  48  46 E5        30.21F
KIRKSVILLE     PTSUNNY   71  50  47 SE10      30.21S

$$

MOZ041-047>049-056>058-063>065-088>090-097-240000-
...EASTERN AND SOUTHERN MISSOURI...

CITY           SKY/WX    TMP DP  RH WIND       PRES   REMARKS
ST. LOUIS INTL PTSUNNY   73  49  42 E7        30.23S
SPIRIT OF STL  PTSUNNY   73  55  53 CALM      30.21F
COLUMBIA       MOSUNNY   71  49  45 E6        30.20F
JEFFERSON CITY MOSUNNY   75  45  34 E6        30.19F
MEXICO         MOSUNNY   73  54  49 SE6       30.22S
ROLLA          MOSUNNY   73  46  38 E8        30.20S
LEBANON        SUNNY     75  43  31 SE5       30.20F
OSAGE BEACH    SUNNY     72  46  40 SE3       30.19F
SPRINGFIELD    MOSUNNY   72  45  37 SE9       30.18S
BRANSON        MOSUNNY   73  45  35 SE7       30.20S
NEVADA         SUNNY     73  48  40 SE10      30.16F
JOPLIN         SUNNY     73  48  41 SE9       30.15F
WEST PLAINS    MOSUNNY   72  45  37 E7        30.22S

$$

IAZ060-094-KSZ022-034>040-054-083-096-NEZ052-066-093-240000-
...KANSAS...SOUTHEAST NEBRASKA AND IOWA...

CITY           SKY/WX    TMP DP  RH WIND       PRES   REMARKS
TOPEKA         LGT RAIN  74  54  49 SE8       30.12R
MANHATTAN      CLOUDY    65  61  87 SE6       30.08F
EMPORIA        PTSUNNY   73  52  47 SE16G24   30.09S
CHANUTE        SUNNY     74  54  49 SE12      30.13S
WICHITA        LGT RAIN  76  53  44 SE18      30.05S
OMAHA          PTSUNNY   68  49  50 S28G33    30.10R
LINCOLN        CLOUDY    62  52  69 SE16      30.09S
FALLS CITY     TSTM      64  59  83 VRB5      30.14R
LAMONI         CLOUDY    66  53  63 VRB5      30.17S
DES MOINES     CLOUDY    70  53  54 SE9       30.17S

$$




USA.gov is the U.S. government's official web portal to all federal, state and local government web resources and services.